Overview Statistics Trail Chart Weather Telemetry Raw packets
 

This is the latest recevied weather packets stored in our database for station/object SV9TNF-56. If no packets are shown the sender has not sent any weather packets the latest 10 day(s).

<< 12 13 14 15 16 17 18 >>
Time Temp. Humidity Pressure Rain* Wind** Luminosity Snow
1788569549 25° C 57% 1011.2 hPa 0 mm 24.14 m/s, 300° - -
1788569249 25° C 57% 1011.2 hPa 0 mm 27.72 m/s, 293° - -
1788568949 25° C 57% 1011.2 hPa 0 mm 28.61 m/s, 336° - -
1788568649 25° C 59% 1011.2 hPa 0 mm 16.99 m/s, 308° - -
1788568349 25° C 60% 1011.5 hPa 0 mm 25.48 m/s, 258° - -
1788568049 25° C 60% 1011.2 hPa 0 mm 27.72 m/s, 238° - -
1788567748 25° C 61% 1011.2 hPa 0 mm 24.59 m/s, 306° - -
1788567448 25° C 63% 1011.2 hPa 0 mm 26.38 m/s, 294° - -
1788567148 24.44° C 64% 1011.5 hPa 0 mm 32.19 m/s, 291° - -
1788566848 24.44° C 65% 1011.5 hPa 0 mm 25.93 m/s, 340° - -
1788566548 24.44° C 68% 1011.5 hPa 0 mm 27.72 m/s, 302° - -
1788566248 24.44° C 68% 1011.5 hPa 0 mm 22.8 m/s, 315° - -
1788565948 24.44° C 67% 1011.5 hPa 0 mm 26.38 m/s, 330° - -
1788565674 24.44° C 68% 1011.9 hPa 0 mm 14.31 m/s, 238° - -
1788565347 24.44° C 68% 1011.9 hPa 0 mm 16.99 m/s, 265° - -
1788565048 24.44° C 69% 1011.5 hPa 0 mm 18.33 m/s, 318° - -
1788564747 24.44° C 69% 1011.5 hPa 0 mm 24.59 m/s, 354° - -
1788564447 24.44° C 70% 1011.5 hPa 0 mm 30.4 m/s, 222° - -
1788564147 24.44° C 69% 1011.9 hPa 0 mm 27.72 m/s, 288° - -
1788563847 24.44° C 68% 1011.9 hPa 0 mm 35.32 m/s, 0° - -
1788563547 24.44° C 67% 1011.9 hPa 0 mm 23.69 m/s, 297° - -
1788563246 24.44° C 67% 1011.9 hPa 0 mm 34.42 m/s, 307° - -
1788562947 24.44° C 67% 1011.9 hPa 0 mm 19.67 m/s, 256° - -
1788562647 24.44° C 67% 1011.9 hPa 0 mm 35.76 m/s, 300° - -
1788562347 24.44° C 66% 1012.2 hPa 0 mm 18.33 m/s, 296° - -

* Rain latest hour (hover to see other rain measurements)
** Current wind speed in m/s (hover to see current wind gust speed)